[[{"header":{"parameterUnit":"m.s-1","parameterCategory":1,"la1":30.2991,"la2":30.254,"lo1":-89.0895,"lo2":-89.0444,"dy":0.0017,"dx":0.0017,"nx":28,"ny":28,"refTime":"2024-02-10T03:00:00:Z","depth":0,"parameterNumber":2,"parameterNumberName":"U-component_of_WINDS"},"data":[0,0,0,0,0,0,0,0,0,0,0,0,0,0,0,0,0,0,0,0,0,0,0,0,0,0,0,0,0,0,0,0,0,0,0,0,0,0,0,0,0,0,0,0,0,0,0,0,0,0,0,0,0,0,0,0,0,0,-1.7451,-1.7452,0,-1.7541,-1.7542,-1.7543,-1.7575,-1.7575,-1.7575,-1.7574,-1.7665,-1.7668,-1.767,0,0,0,0,0,0,0,0,0,0,0,0,0,-1.7306,-1.7308,-1.7451,-1.7452,-1.7453,-1.754,-1.7542,-1.7543,-1.7575,-1.7575,-1.7575,-1.7574,-1.7664,-1.7667,-1.7671,0,0,0,0,0,0,0,0,0,0,0,0,0,-1.7379,-1.7309,-1.7451,-1.748,-1.7484,-1.754,-1.7542,-1.7543,-1.7575,-1.7575,-1.7575,-1.7574,-1.7663,-1.7667,-1.7671,-1.7705,0,0,-1.7683,-1.7685,0,0,0,0,0,0,0,0,-1.7375,-1.7385,-1.7475,-1.7478,-1.7482,-1.7546,-1.7524,-1.7597,-1.7576,-1.7541,-1.7574,-1.7574,-1.7626,-1.7633,-1.7651,-1.7709,-1.7713,-1.7684,-1.7686,-1.7688,-1.7689,0,0,0,0,0,0,0,-1.737,-1.7381,-1.7486,-1.7476,-1.748,-1.7488,-1.7498,-1.7538,-1.7585,-1.7544,-1.7546,-1.7556,-1.7628,-1.7647,-1.7653,-1.7715,-1.7684,-1.7687,-1.769,-1.7691,-1.7803,-1.7804,0,0,0,0,0,0,-1.736,-1.7377,-1.7484,-1.7489,-1.7427,-1.7491,-1.7502,-1.7526,-1.7584,-1.7593,-1.7557,-1.7557,-1.764,-1.7648,-1.7656,-1.7699,-1.7688,-1.7692,-1.7694,-1.7803,-1.7804,-1.7804,0,0,0,0,0,0,-1.7357,-1.737,-1.748,-1.7434,-1.7448,-1.7494,-1.7521,-1.7528,-1.7547,-1.7594,-1.7602,-1.7568,-1.764,-1.7651,-1.7692,-1.7703,-1.7694,-1.7697,-1.7802,-1.7803,-1.7804,-1.7785,0,0,0,0,0,0,-1.7353,-1.7368,-1.7382,-1.7434,-1.7451,-1.7515,-1.7521,-1.753,-1.7554,-1.7556,-1.7607,-1.7615,-1.7641,-1.7686,-1.7696,-1.7708,-1.77,-1.7802,-1.7803,-1.7804,-1.7785,-1.7785,-1.7785,0,0,0,0,0,-1.7348,-1.7374,-1.7383,-1.7396,-1.7469,-1.7516,-1.7525,-1.7555,-1.7555,-1.7569,-1.7599,-1.7613,-1.77,-1.769,-1.7702,-1.7715,-1.7801,-1.7802,-1.7804,-1.7785,-1.7785,-1.7785,0,0,0,0,0,0,-1.7322,-1.7381,-1.7392,-1.7436,-1.747,-1.7521,-1.754,-1.7555,-1.759,-1.759,-1.7625,-1.7636,-1.7675,-1.7699,-1.7687,-1.775,-1.7751,-1.7755,-1.7733,-1.7733,-1.7733,-1.7727,-1.7704,0,0,0,0,0,-1.7322,-1.7355,-1.7404,-1.7438,-1.7455,-1.7494,-1.7516,-1.7535,-1.7573,-1.7588,-1.7621,-1.7656,-1.7691,-1.7714,-1.7749,-1.7788,-1.7799,-1.7803,-1.7803,-1.7803,-1.7805,-1.7826,-1.7828,-1.7808,-1.7808,-1.7808,0,0,-1.7321,-1.7357,-1.7376,-1.7434,-1.7463,-1.7496,-1.7506,-1.7541,-1.7566,-1.7593,-1.7634,-1.7659,-1.7701,-1.7741,-1.776,-1.7762,-1.7813,-1.7804,-1.7804,-1.7807,-1.7828,-1.783,-1.7831,-1.7809,-1.7809,-1.7809,0,0,-1.7337,-1.7368,-1.7399,-1.7427,-1.7472,-1.7497,-1.7504,-1.7553,-1.757,-1.7612,-1.7633,-1.7662,-1.7722,-1.775,-1.7773,-1.7797,-1.7811,-1.7807,-1.7808,-1.7828,-1.7829,-1.7831,-1.7839,-1.7841,-1.781,-1.7809,-1.7809,0,-1.733,-1.7381,-1.7412,-1.7446,-1.747,-1.7495,-1.7526,-1.7552,-1.7605,-1.7621,-1.7622,-1.7697,-1.7727,-1.7774,-1.7779,-1.7797,-1.7805,-1.7802,-1.7827,-1.7829,-1.7831,-1.7838,-1.7841,-1.7809,-1.7809,-1.7809,-1.7809,0,-1.7371,-1.7405,-1.7425,-1.7475,-1.7501,-1.7533,-1.7568,-1.759,-1.7607,-1.7632,-1.7673,-1.771,-1.7752,-1.7765,-1.7782,-1.7813,-1.7813,-1.782,-1.7822,-1.7831,-1.7839,-1.7842,-1.7808,-1.7808,-1.7808,-1.7808,0,0,-1.7374,-1.744,-1.7446,-1.7468,-1.7518,-1.7545,-1.7577,-1.7619,-1.7637,-1.7672,-1.7699,-1.7748,-1.7755,-1.778,-1.78,-1.7818,-1.7833,-1.7823,-1.7824,-1.7823,-1.7868,-1.7862,-1.7865,-1.7842,-1.7843,-1.7844,-1.7865,0,-1.7395,-1.7454,-1.7482,-1.7528,-1.756,-1.7584,-1.7612,-1.7645,-1.7669,-1.7698,-1.7725,-1.7759,-1.7765,-1.778,-1.7799,-1.7827,-1.7843,-1.7826,-1.7867,-1.7868,-1.7856,-1.787,-1.7864,-1.7882,-1.7868,-1.7869,-1.7869,0,-1.7428,-1.7463,-1.7512,-1.7557,-1.7571,-1.7595,-1.7634,-1.7663,-1.77,-1.7716,-1.7743,-1.7763,-1.7796,-1.7796,-1.7842,-1.783,-1.7848,-1.7864,-1.7866,-1.787,-1.7869,-1.7874,-1.7889,-1.7891,-1.7874,-1.7874,-1.7873,0,-1.7424,-1.7483,-1.752,-1.7538,-1.7592,-1.7608,-1.7631,-1.7667,-1.769,-1.7724,-1.7738,-1.7776,-1.7796,-1.7824,-1.7852,-1.7849,-1.7895,-1.7897,-1.7909,-1.7908,-1.7917,-1.7916,-1.7934,-1.793,-1.7929,-1.7929,-1.7929,0,-1.7445,-1.7474,-1.7519,-1.7541,-1.7574,-1.7605,-1.7636,-1.7661,-1.7693,-1.772,-1.7743,-1.7768,-1.7804,-1.7833,-1.7855,-1.7889,-1.7899,-1.7912,-1.7917,-1.791,-1.7908,-1.7922,-1.7921,-1.793,-1.793,-1.793,-1.793,0,-1.7446,-1.7477,-1.7519,-1.7565,-1.7577,-1.7599,-1.7638,-1.7661,-1.7685,-1.7719,-1.7729,-1.7767,-1.7802,-1.7833,-1.788,-1.7895,-1.7929,-1.7937,-1.7917,-1.792,-1.7929,-1.7928,-1.7957,-1.7962,-1.7954,-1.7954,-1.7954,0,-1.7456,-1.7479,-1.7528,-1.7547,-1.757,-1.7601,-1.7624,-1.7655,-1.7678,-1.7721,-1.7738,-1.7774,-1.7806,-1.786,-1.7892,-1.7927,-1.7935,-1.7943,-1.7941,-1.7932,-1.7935,-1.7933,-1.7935,-1.7943,-1.7943,-1.7943,-1.7943,0,-1.7472,-1.7486,-1.7518,-1.7555,-1.7581,-1.7612,-1.7643,-1.7658,-1.7695,-1.7719,-1.7755,-1.7779,-1.7826,-1.7862,-1.7901,-1.7924,-1.7939,-1.7943,-1.7947,-1.794,-1.7927,-1.7933,-1.7916,-1.7942,-1.7942,-1.7942,-1.7942,-1.7942,-1.7478,-1.7499,-1.7535,-1.757,-1.7597,-1.7625,-1.7648,-1.7675,-1.7706,-1.7746,-1.7763,-1.7799,-1.7834,-1.7888,-1.791,-1.7939,-1.7942,-1.7948,-1.795,-1.7951,-1.7949,-1.7922,-1.7946,-1.7946,-1.7946,-1.7946,-1.7946,0,-1.7494,-1.7518,-1.755,-1.7592,-1.7619,-1.7631,-1.7666,-1.7687,-1.7719,-1.7751,-1.7781,-1.7822,-1.7856,-1.789,-1.7926,-1.7942,-1.795,-1.7951,-1.795,-1.7955,-1.7945,-1.7937,-1.7944,-1.7944,-1.7944,-1.7944,-1.7944,-1.7944,-1.7505,-1.754,-1.7558,-1.7607,-1.7631,-1.7667,-1.7686,-1.7712,-1.7737,-1.7782,-1.781,-1.7832,-1.7865,-1.7903,-1.7935,-1.7944,-1.7956,-1.7954,-1.7965,-1.7956,-1.7955,-1.7955,-1.7948,-1.7957,-1.7957,-1.7972,-1.7972,-1.7973]},{"header":{"parameterUnit":"m.s-1","parameterCategory":1,"la1":30.2991,"la2":30.254,"lo1":-89.0895,"lo2":-89.0444,"dy":0.0017,"dx":0.0017,"nx":28,"ny":28,"refTime":"2024-02-10T03:00:00:Z","depth":0,"parameterNumber":3,"parameterNumberName":"V-component_of_WINDS"},"data":[0,0,0,0,0,0,0,0,0,0,0,0,0,0,0,0,0,0,0,0,0,0,0,0,0,0,0,0,0,0,0,0,0,0,0,0,0,0,0,0,0,0,0,0,0,0,0,0,0,0,0,0,0,0,0,0,0,0,3.7553,3.7556,0,3.7758,3.776,3.7763,3.7811,3.781,3.7808,3.7807,3.8019,3.8026,3.8033,0,0,0,0,0,0,0,0,0,0,0,0,0,3.7207,3.7213,3.7553,3.7556,3.7558,3.7758,3.7761,3.7763,3.7811,3.7809,3.7808,3.7806,3.8017,3.8025,3.8033,0,0,0,0,0,0,0,0,0,0,0,0,0,3.7379,3.7215,3.7553,3.7606,3.7613,3.7757,3.7761,3.7764,3.7812,3.7809,3.7807,3.7805,3.8014,3.8024,3.8035,3.8141,0,0,3.8066,3.8071,0,0,0,0,0,0,0,0,3.7369,3.7392,3.7596,3.7603,3.7611,3.7757,3.7716,3.7891,3.7812,3.7736,3.7807,3.7804,3.7934,3.7951,3.7994,3.8151,3.816,3.8067,3.8074,3.8078,3.8081,0,0,0,0,0,0,0,3.7357,3.7383,3.7634,3.7599,3.7608,3.7621,3.7643,3.775,3.7844,3.7743,3.7747,3.777,3.7937,3.7984,3.7999,3.8163,3.8067,3.8076,3.8083,3.8087,3.8421,3.8424,0,0,0,0,0,0,3.7336,3.7373,3.7628,3.7641,3.7482,3.7629,3.7654,3.7712,3.7843,3.7861,3.7772,3.7772,3.7967,3.7987,3.8007,3.8143,3.8078,3.8088,3.8094,3.8419,3.8422,3.8425,0,0,0,0,0,0,3.7328,3.7358,3.762,3.7508,3.7542,3.7637,3.7702,3.7717,3.7763,3.7865,3.7883,3.7801,3.7966,3.7992,3.8108,3.8151,3.8093,3.8102,3.8416,3.842,3.8423,3.8414,0,0,0,0,0,0,3.7318,3.7355,3.7396,3.7509,3.7548,3.7716,3.7705,3.7723,3.7781,3.7783,3.7898,3.7915,3.7966,3.8092,3.8118,3.8164,3.811,3.8412,3.8417,3.8422,3.8411,3.8417,3.8422,0,0,0,0,0,3.7305,3.7385,3.7397,3.7428,3.7601,3.7718,3.7741,3.7798,3.7784,3.7827,3.7892,3.7911,3.8141,3.8103,3.8133,3.8183,3.841,3.8416,3.8422,3.8408,3.8415,3.8422,0,0,0,0,0,0,3.7275,3.74,3.7416,3.7534,3.7615,3.7726,3.7782,3.7804,3.7892,3.789,3.7958,3.7983,3.8095,3.815,3.8106,3.8294,3.8275,3.8287,3.8255,3.8263,3.8268,3.8254,3.8119,0,0,0,0,0,3.7281,3.7366,3.7471,3.7565,3.7605,3.7686,3.7739,3.7776,3.7864,3.7899,3.7973,3.8058,3.815,3.8209,3.8298,3.8418,3.8445,3.8467,3.8472,3.8477,3.8487,3.8558,3.8569,3.8444,3.8444,3.8444,0,0,3.7297,3.7376,3.7425,3.7561,3.7628,3.7716,3.7715,3.7807,3.7873,3.7913,3.8028,3.8085,3.8184,3.8303,3.8359,3.8352,3.8528,3.8484,3.8487,3.8495,3.8565,3.8577,3.8587,3.8448,3.8447,3.8447,0,0,3.737,3.7437,3.7524,3.7591,3.7693,3.7747,3.7767,3.7876,3.7916,3.8031,3.8064,3.8144,3.8299,3.837,3.8426,3.8527,3.8548,3.8554,3.8585,3.8652,3.8662,3.8672,3.8711,3.8723,3.8563,3.8563,3.8563,0,3.7376,3.7508,3.7566,3.7657,3.7717,3.7756,3.7846,3.7909,3.8035,3.8077,3.8067,3.8265,3.8334,3.8471,3.8496,3.8539,3.8567,3.8542,3.8656,3.8666,3.8675,3.8713,3.8727,3.8564,3.8564,3.8564,3.8564,0,3.7513,3.7604,3.7662,3.7783,3.7849,3.7939,3.8012,3.8072,3.8103,3.8158,3.8277,3.8361,3.847,3.8505,3.8536,3.8647,3.864,3.8642,3.8625,3.8687,3.8724,3.8738,3.8564,3.8564,3.8564,3.8564,0,0,3.7574,3.7726,3.7746,3.7803,3.7918,3.7991,3.8083,3.8189,3.8241,3.8326,3.8407,3.8538,3.8542,3.8605,3.8645,3.8703,3.8782,3.8699,3.8702,3.8714,3.8913,3.8914,3.8929,3.8795,3.8798,3.8801,3.8906,0,3.7664,3.783,3.7884,3.8023,3.811,3.8148,3.8229,3.831,3.8363,3.8446,3.8505,3.8599,3.8594,3.8633,3.8693,3.8759,3.8823,3.8752,3.8874,3.8878,3.8851,3.8948,3.8948,3.9044,3.8921,3.8923,3.8925,0,3.7791,3.7879,3.8026,3.8133,3.8171,3.8243,3.8346,3.8422,3.8515,3.855,3.8622,3.8657,3.8757,3.8731,3.8872,3.8822,3.8875,3.8915,3.8921,3.8937,3.8907,3.897,3.9075,3.9091,3.8948,3.8946,3.8944,0,3.7825,3.798,3.8089,3.8135,3.8261,3.8311,3.8366,3.8457,3.8518,3.8607,3.8648,3.8748,3.8804,3.8881,3.8943,3.8918,3.9079,3.9058,3.9113,3.9112,3.9148,3.9145,3.9266,3.9176,3.9176,3.9176,3.9175,0,3.7922,3.8011,3.8106,3.8173,3.8275,3.8337,3.8437,3.8494,3.8574,3.8655,3.8693,3.8768,3.8844,3.8929,3.8978,3.9089,3.9112,3.9146,3.9158,3.9144,3.9141,3.9182,3.9178,3.918,3.9179,3.9178,3.9177,0,3.7978,3.8044,3.8166,3.8276,3.8305,3.8376,3.847,3.8538,3.8593,3.8694,3.8722,3.8809,3.8911,3.898,3.9111,3.9144,3.9265,3.9275,3.9234,3.9241,3.9294,3.9289,3.9448,3.9474,3.9363,3.9364,3.9365,0,3.8037,3.8107,3.8223,3.828,3.8335,3.8425,3.8487,3.8551,3.8615,3.8726,3.8781,3.8886,3.8974,3.9136,3.9212,3.9313,3.9328,3.9376,3.9343,3.9328,3.9333,3.9329,3.9338,3.9383,3.9383,3.9384,3.9385,0,3.8135,3.8165,3.8253,3.8353,3.8426,3.8509,3.8591,3.8635,3.8713,3.8783,3.8888,3.8956,3.909,3.9195,3.9303,3.9362,3.9388,3.9394,3.9413,3.9401,3.9376,3.9394,3.9252,3.9391,3.939,3.939,3.939,3.9389,3.8197,3.8262,3.8355,3.8452,3.8521,3.8597,3.8667,3.873,3.8819,3.8933,3.8965,3.9075,3.9168,3.9316,3.9376,3.9465,3.946,3.9487,3.9494,3.95,3.9502,3.9359,3.9484,3.9484,3.9484,3.9484,3.9484,0,3.8301,3.8362,3.8451,3.8565,3.8642,3.8658,3.875,3.8814,3.891,3.8994,3.908,3.9202,3.9304,3.9387,3.9493,3.9548,3.9563,3.9574,3.9572,3.9586,3.9499,3.9474,3.9561,3.9561,3.956,3.956,3.956,3.956,3.8364,3.8476,3.8516,3.8663,3.8724,3.8832,3.8884,3.8955,3.9023,3.9157,3.9242,3.9295,3.938,3.9492,3.9587,3.9609,3.9648,3.9658,3.9683,3.96,3.9592,3.9584,3.9561,3.9664,3.9665,3.9763,3.9764,3.9765]}]]